Moriarty, NM

5:22 PM MDT on August 28, 2016 (GMT -0600)
Moriarty

Weather History for K0E0 - April, 2014

Change the Weather History Date:

Friday, April 18, 2014

  Actual Average (KABQ) Record (KABQ)
Temperature  
Mean Temperature 49 °F 57 °F  
Max Temperature 74 °F 70 °F 87 °F (1994)
Min Temperature 24 °F 44 °F 28 °F (1896)
Degree Days  
Heating Degree Days 16 8  
Month to date heating degree days 197  
Since 1 July heating degree days 4024  
Cooling Degree Days 0 0  
Month to date cooling degree days 0  
Year to date cooling degree days 0  
Moisture  
Dew Point 24 °F    
Average Humidity 40    
Maximum Humidity 79    
Minimum Humidity 13    
Precipitation  
Precipitation 0.00 in 0.02 in 0.44 in (1908)
Month to date precipitation 0.39  
Year to date precipitation 1.82  
Snow  
Snow 0.00 in - - ()
Month to date snowfall  
Since 1 July snowfall  
Snow Depth -    
Sea Level Pressure  
Sea Level Pressure 30.17 in    
Wind  
Wind Speed 6 mph (SSW)    
Max Wind Speed 24 mph    
Max Gust Speed 30 mph    
Visibility 10 miles    
Events      
T = Trace of Precipitation, MM = Missing Value Source: NWS Daily Summary

Daily Weather History Graph

Daily Weather History Graph

Search for Another Location

Airport or City:

Trip Planner

Search our weather history database for the weather conditions in past years. The results will help you decide how hot, cold, wet, or windy it might be!

Date:

Astronomy

Apr. 18, 2014 Rise Set
Actual Time 6:28 AM MDT 7:39 PM MDT
Civil Twilight 6:02 AM MDT 8:05 PM MDT
Nautical Twilight 5:30 AM MDT 8:36 PM MDT
Astronomical Twilight 4:58 AM MDT 9:09 PM MDT
Moon 11:21 PM MDT (4/18) 8:57 AM MDT (4/18)
Length of Visible Light 14h 03m
Length of Day
13h 10m
Waning Gibbous, 86% of the Moon is Illuminated
Apr 18
Waning Gibbous
Apr 22
Last Quarter
Apr 29
New
May 6
First Quarter
May 14
Full

Hourly Weather History & Observations

Time (MDT) Temp. Windchill Dew Point Humidity Pressure Visibility Wind Dir Wind Speed Gust Speed Precip Events Conditions
12:15 AM 35.4 °F - 22.6 °F 60% 30.24 in 10.0 mi Calm Calm - N/A   Clear
12:35 AM 33.3 °F 30.2 °F 21.4 °F 62% 30.24 in 10.0 mi SE 3.5 mph - N/A   Clear
12:55 AM 36.5 °F - 23.2 °F 59% 30.24 in 10.0 mi Calm Calm - N/A   Clear
1:15 AM 38.5 °F 36.1 °F 23.9 °F 56% 30.24 in 10.0 mi SSE 3.5 mph - N/A   Clear
1:35 AM 36.0 °F - 20.7 °F 54% 30.23 in 10.0 mi Calm Calm - N/A   Clear
1:55 AM 35.6 °F - 23.7 °F 62% 30.23 in 10.0 mi Calm Calm - N/A   Clear
2:15 AM 32.5 °F - 22.8 °F 67% 30.23 in 10.0 mi Calm Calm - N/A   Clear
2:35 AM 36.1 °F 32.3 °F 25.0 °F 64% 30.22 in 10.0 mi SSW 4.6 mph - N/A   Clear
2:55 AM 38.3 °F 34.8 °F 26.2 °F 62% 30.22 in 10.0 mi SSW 4.6 mph - N/A   Clear
3:15 AM 37.4 °F 33.8 °F 25.5 °F 62% 30.22 in 10.0 mi SW 4.6 mph - N/A   Clear
3:35 AM 30.0 °F 23.2 °F 22.1 °F 72% 30.22 in 10.0 mi NW 6.9 mph - N/A   Clear
3:55 AM 29.1 °F 24.1 °F 22.1 °F 75% 30.22 in 10.0 mi NW 4.6 mph - N/A   Clear
4:35 AM 27.9 °F 24.0 °F 21.6 °F 77% 30.22 in 10.0 mi NNE 3.5 mph - N/A   Clear
4:55 AM 28.2 °F - 21.4 °F 76% 30.22 in 10.0 mi Calm Calm - N/A   Clear
5:15 AM 26.8 °F - 20.3 °F 77% 30.22 in 10.0 mi Calm Calm - N/A   Clear
5:35 AM 25.7 °F 21.5 °F 19.9 °F 79% 30.22 in 10.0 mi NNW 3.5 mph - N/A   Clear
5:55 AM 25.2 °F 20.9 °F 18.9 °F 77% 30.22 in 10.0 mi NNW 3.5 mph - N/A   Clear
6:15 AM 25.5 °F 21.3 °F 19.8 °F 79% 30.21 in 10.0 mi North 3.5 mph - N/A   Clear
6:35 AM 24.8 °F - 18.9 °F 78% 30.22 in 10.0 mi Calm Calm - N/A   Clear
6:55 AM 26.6 °F - 19.8 °F 75% 30.22 in 10.0 mi Calm Calm - N/A   Clear
7:15 AM 29.7 °F - 21.9 °F 73% 30.23 in 10.0 mi Calm Calm - N/A   Clear
7:35 AM 32.0 °F - 23.0 °F 69% 30.23 in 10.0 mi Calm Calm - N/A   Clear
7:55 AM 33.1 °F - 23.4 °F 67% 30.23 in 10.0 mi Calm Calm - N/A   Clear
8:15 AM 37.4 °F - 25.0 °F 61% 30.24 in 10.0 mi Calm Calm - N/A   Clear
8:35 AM 40.6 °F - 27.1 °F 59% 30.24 in 10.0 mi Calm Calm - N/A   Clear
8:55 AM 43.2 °F - 28.2 °F 56% 30.24 in 10.0 mi Calm Calm - N/A   Clear
9:15 AM 46.0 °F 44.8 °F 29.7 °F 53% 30.23 in 10.0 mi South 3.5 mph - N/A   Clear
9:35 AM 48.4 °F - 30.0 °F 49% 30.23 in 10.0 mi South 3.5 mph - N/A   Clear
10:15 AM 53.6 °F - 28.0 °F 37% 30.22 in 10.0 mi SSE 5.8 mph - N/A   Clear
10:35 AM 56.7 °F - 28.2 °F 34% 30.22 in 10.0 mi South 6.9 mph - N/A   Clear
10:55 AM 57.4 °F - 28.2 °F 33% 30.21 in 10.0 mi SW 6.9 mph - N/A   Clear
11:15 AM 59.5 °F - 28.8 °F 31% 30.21 in 10.0 mi South 9.2 mph - N/A   Clear
11:35 AM 62.1 °F - 28.6 °F 28% 30.20 in 10.0 mi SSW 6.9 mph - N/A   Clear
11:55 AM 63.5 °F - 28.8 °F 27% 30.19 in 10.0 mi South 5.8 mph - N/A   Clear
12:15 PM 66.2 °F - 28.2 °F 24% 30.19 in 10.0 mi South 6.9 mph - N/A   Clear
12:35 PM 67.5 °F - 27.7 °F 23% 30.17 in 10.0 mi SSW 10.4 mph 19.6 mph N/A   Clear
12:55 PM 69.6 °F - 27.0 °F 20% 30.16 in 10.0 mi SSW 5.8 mph - N/A   Clear
1:15 PM 73.2 °F - 23.9 °F 16% 30.15 in 10.0 mi SSE 10.4 mph 19.6 mph N/A   Clear
1:35 PM 73.0 °F - 21.4 °F 14% 30.14 in 10.0 mi SSW 11.5 mph 19.6 mph N/A   Clear
1:55 PM 74.1 °F - 20.3 °F 13% 30.13 in 10.0 mi South 15.0 mph 24.2 mph N/A   Clear
2:15 PM 73.9 °F - 19.8 °F 13% 30.12 in 10.0 mi South 17.3 mph 24.2 mph N/A   Clear
2:35 PM 73.4 °F - 19.4 °F 13% 30.11 in 10.0 mi SSW 12.7 mph 26.5 mph N/A   Clear
2:55 PM 72.5 °F - 20.1 °F 14% 30.11 in 10.0 mi SSW 15.0 mph 23.0 mph N/A   Clear
3:15 PM 72.9 °F - 18.7 °F 13% 30.10 in 10.0 mi SSW 21.9 mph 28.8 mph N/A   Clear
3:35 PM 74.7 °F - 20.3 °F 13% 30.09 in 10.0 mi SSW 11.5 mph 26.5 mph N/A   Clear
3:55 PM 71.6 °F - 19.2 °F 14% 30.09 in 10.0 mi SSW 19.6 mph 26.5 mph N/A   Clear
4:15 PM 72.9 °F - 19.4 °F 13% 30.08 in 10.0 mi South 16.1 mph 26.5 mph N/A   Clear
4:35 PM 73.2 °F - 19.6 °F 13% 30.07 in 10.0 mi SSW 18.4 mph 27.6 mph N/A   Clear
4:55 PM 74.3 °F - 20.1 °F 13% 30.07 in 10.0 mi South 21.9 mph - N/A   Clear
5:15 PM 72.7 °F - 21.7 °F 15% 30.07 in 10.0 mi SSW 18.4 mph 26.5 mph N/A   Clear
5:35 PM 71.4 °F - 21.9 °F 16% 30.07 in 10.0 mi South 20.7 mph 25.3 mph N/A   Clear
5:55 PM 71.2 °F - 20.3 °F 15% 30.07 in 10.0 mi South 24.2 mph 27.6 mph N/A   Clear
6:15 PM 69.3 °F - 20.3 °F 16% 30.07 in 10.0 mi South 20.7 mph 29.9 mph N/A   Clear
6:35 PM 67.5 °F - 21.2 °F 17% 30.08 in 10.0 mi SSW 18.4 mph - N/A   Clear
6:55 PM 66.7 °F - 21.9 °F 18% 30.08 in 10.0 mi SSW 18.4 mph 26.5 mph N/A   Scattered Clouds
7:15 PM 66.2 °F - 23.4 °F 20% 30.08 in 10.0 mi SSW 16.1 mph - N/A   Mostly Cloudy
7:35 PM 64.8 °F - 24.8 °F 22% 30.08 in 10.0 mi South 11.5 mph - N/A   Overcast
7:55 PM 63.1 °F - 25.2 °F 24% 30.08 in 10.0 mi South 10.4 mph - N/A   Overcast
8:15 PM 61.3 °F - 25.2 °F 25% 30.10 in 10.0 mi South 11.5 mph - N/A   Scattered Clouds
8:35 PM 59.2 °F - 25.7 °F 28% 30.10 in 10.0 mi South 11.5 mph - N/A   Clear
8:55 PM 58.3 °F - 25.7 °F 29% 30.11 in 10.0 mi South 10.4 mph - N/A   Clear
9:15 PM 56.8 °F - 25.9 °F 30% 30.13 in 10.0 mi SSE 8.1 mph - N/A   Scattered Clouds
9:35 PM 56.3 °F - 25.7 °F 31% 30.13 in 10.0 mi SSE 5.8 mph - N/A   Mostly Cloudy
9:55 PM 55.4 °F - 25.2 °F 31% 30.14 in 10.0 mi South 5.8 mph - N/A   Scattered Clouds
10:15 PM 54.9 °F - 25.3 °F 32% 30.15 in 10.0 mi South 5.8 mph - N/A   Scattered Clouds
10:35 PM 55.6 °F - 26.6 °F 33% 30.16 in 10.0 mi SW 4.6 mph - N/A   Mostly Cloudy
10:55 PM 59.7 °F - 28.9 °F 31% 30.16 in 10.0 mi WSW 21.9 mph 29.9 mph N/A   Overcast
11:15 PM 59.2 °F - 29.7 °F 33% 30.17 in 10.0 mi WSW 17.3 mph 25.3 mph N/A   Overcast
11:35 PM 58.1 °F - 30.6 °F 35% 30.18 in 10.0 mi SW 16.1 mph - N/A   Overcast
11:55 PM 56.7 °F - 32.0 °F 39% 30.19 in 10.0 mi West 16.1 mph - N/A   Overcast